Overview Statistics Trail Chart Weather Telemetry Raw packets
 

This is the latest recevied weather packets stored in our database for station/object KB9HUO. If no packets are shown the sender has not sent any weather packets the latest 10 day(s).

<< 56 57 58 59 60 61 62 >>
Time Temp. Humidity Pressure Rain* Wind** Luminosity Snow
1788286407 35° C 53% 1019.3 hPa 0 mm - 671 W/m² -
1788286106 35° C 57% 1019.2 hPa 0 mm - 682 W/m² -
1788285805 35° C 56% 1019.3 hPa 0 mm - 682 W/m² -
1788285504 35° C 57% 1019.3 hPa 0 mm - 666 W/m² -
1788285199 34.44° C 56% 1019.4 hPa 0 mm - 696 W/m² -
1788284894 34.44° C 58% 1019.5 hPa 0 mm - 663 W/m² -
1788284590 34.44° C 56% 1019.5 hPa 0 mm - 676 W/m² -
1788284285 33.89° C 58% 1019.4 hPa 0 mm - 670 W/m² -
1788283980 33.89° C 58% 1019.8 hPa 0 mm - 698 W/m² -
1788283677 33.89° C 59% 1019.5 hPa 0 mm - 698 W/m² -
1788283375 34.44° C 58% 1019.5 hPa 0 mm - 676 W/m² -
1788283074 33.89° C 58% 1019.8 hPa 0 mm - 691 W/m² -
1788282773 33.89° C 58% 1019.8 hPa 0 mm - 678 W/m² -
1788282472 33.89° C 59% 1020.1 hPa 0 mm - 678 W/m² -
1788282168 33.89° C 57% 1020 hPa 0 mm - 658 W/m² -
1788281866 33.89° C 56% 1019.7 hPa 0 mm - 676 W/m² -
1788281561 33.89° C 59% 1020 hPa 0 mm - 671 W/m² -
1788281258 33.89° C 59% 1019.8 hPa 0 mm - 676 W/m² -
1788280953 33.33° C 59% 1020.3 hPa 0 mm - 679 W/m² -
1788280648 33.33° C 61% 1020 hPa 0 mm - 681 W/m² -
1788280347 33.33° C 59% 1020 hPa 0 mm - 662 W/m² -
1788280042 32.78° C 61% 1020 hPa 0 mm - 658 W/m² -
1788279751 32.78° C 61% 1019.8 hPa 0 mm - 650 W/m² -
1788279441 33.33° C 61% 1020.1 hPa 0 mm - 648 W/m² -
1788279136 33.33° C 60% 1020.2 hPa 0 mm - 626 W/m² -

* Rain latest hour (hover to see other rain measurements)
** Current wind speed in m/s (hover to see current wind gust speed)